Tracking 30922 objects as of 2-Jul-2025
HD Live streaming from Space Station
objects crossing your sky now

COSMOS 839 DEB

Track COSMOS 839 DEB now!
10-day predictions


NORAD ID: 10412
Int'l Code: 1976-067F
Perigee: 997.3 km
Apogee: 2,082.7 km
Inclination: 65.7 °
Period: 116.7 minutes
Semi major axis: 7910 km
RCS: 0.1208 m2 (medium)
Launch date: July 8, 1976
Source: Commonwealth of Independent States (former USSR) (CIS)
Launch site: PLESETSK MISSILE AND SPACE COMPLEX (PKMTR)

Note: This is SATELLITE DEBRIS
Your satellite tracking list
TITAN 3C TRANSTAGE DEB
Track 1 satellite(s)




NASA's NSSDC Master Catalog

Two Line Element Set (TLE):
1 10412U 76067F   25182.49117536 -.00000032  00000-0  87005-4 0  9998
2 10412  65.6834 304.8585 0686039 168.5827 280.4978 12.33834225206508
Source of the keplerian elements: AFSPC